| time (UTC) | temp F | wind direction | speed MPH | gust MPH | rain 1hr in | rain 24hr in | rain mn in | humidity % | barometer mb |
| 20260506172354 | 46 | 300 | 2.0 | 7.0 | 0.14 | 0.67 | 0.67 | 96 | 1002.5 |
| 20260506171844 | 46 | 360 | 4.0 | 7.0 | 0.19 | 0.65 | 0.65 | 96 | 1002.5 |
| 20260506171314 | 46 | 311 | 3.0 | 5.0 | 0.17 | 0.63 | 0.63 | 96 | 1002.6 |
| 20260506170824 | 46 | 45 | 2.0 | 6.0 | 0.16 | 0.62 | 0.62 | 96 | 1002.6 |
| 20260506170332 | 46 | 360 | 4.0 | 9.0 | 0.15 | 0.61 | 0.61 | 96 | 1002.6 |
| 20260506165820 | 46 | 355 | 4.0 | 11.0 | 0.13 | 0.59 | 0.59 | 96 | 1003.1 |
| 20260506165313 | 46 | 5 | 5.0 | 11.0 | 0.12 | 0.58 | 0.58 | 95 | 1003.1 |
| 20260506164819 | 47 | 12 | 4.0 | 10.0 | 0.12 | 0.58 | 0.58 | 95 | 1003.1 |
| 20260506164323 | 47 | 346 | 4.0 | 10.0 | 0.11 | 0.56 | 0.56 | 95 | 1003.0 |
| 20260506163815 | 48 | 321 | 4.0 | 6.0 | 0.12 | 0.55 | 0.55 | 96 | 1003.0 |
| 20260506163343 | 48 | 355 | 3.0 | 6.0 | 0.12 | 0.54 | 0.54 | 96 | 1003.0 |
| 20260506162826 | 48 | 337 | 2.0 | 4.0 | 0.12 | 0.53 | 0.53 | 96 | 1003.0 |
| 20260506162318 | 48 | 355 | 327.0 | 2.0 | 0.12 | 0.52 | 0.52 | 96 | 1003.0 |
| 20260506161827 | 0 | 0.0 | 0.0 | 0.08 | 0.46 | 0.46 | 1003.0 | ||
| 20260506161344 | 0 | 0.0 | 0.0 | 0.09 | 0.46 | 0.46 | 1003.1 | ||
| 20260506160814 | 0 | 0.0 | 0.0 | 0.10 | 0.46 | 0.46 | 1003.1 | ||
| 20260506160340 | 49 | 314 | 2.0 | 5.0 | 0.11 | 0.46 | 0.46 | 96 | 1003.1 |
| 20260506155824 | 49 | 314 | 2.0 | 5.0 | 0.13 | 0.46 | 0.46 | 96 | 1003.3 |
| 20260506155316 | 49 | 336 | 2.0 | 5.0 | 0.15 | 0.46 | 0.46 | 96 | 1003.3 |
| 20260506154843 | 49 | 336 | 2.0 | 4.0 | 0.17 | 0.46 | 0.46 | 96 | 1003.3 |
| 20260506154327 | 49 | 355 | 0.0 | 1.0 | 0.18 | 0.45 | 0.45 | 96 | 1003.2 |
| 20260506153815 | 49 | 355 | 0.0 | 2.0 | 0.18 | 0.43 | 0.43 | 96 | 1003.2 |
| 20260506153359 | 49 | 355 | 0.0 | 2.0 | 0.19 | 0.42 | 0.42 | 95 | 1003.2 |
| 20260506152812 | 49 | 355 | 0.0 | 2.0 | 0.19 | 0.41 | 0.41 | 96 | 1003.5 |
| 20260506152324 | 49 | 355 | 1.0 | 2.0 | 0.18 | 0.39 | 0.39 | 96 | 1003.5 |
| 20260506151839 | 49 | 355 | 0.0 | 2.0 | 0.19 | 0.38 | 0.38 | 96 | 1003.5 |
| 20260506151327 | 49 | 355 | 1.0 | 2.0 | 0.20 | 0.37 | 0.37 | 96 | 1003.7 |
| 20260506150835 | 50 | 355 | 0.0 | 2.0 | 0.19 | 0.36 | 0.36 | 96 | 1003.7 |
| 20260506150339 | 50 | 355 | 0.0 | 3.0 | 0.18 | 0.34 | 0.34 | 96 | 1003.7 |
| 20260506145816 | 50 | 355 | 1.0 | 5.0 | 0.18 | 0.33 | 0.33 | 96 | 1004.2 |
| 20260506145324 | 50 | 325 | 2.0 | 5.0 | 0.16 | 0.31 | 0.31 | 96 | 1004.2 |
| 20260506144833 | 50 | 306 | 2.0 | 5.0 | 0.15 | 0.29 | 0.29 | 95 | 1004.2 |
| 20260506144339 | 50 | 319 | 2.0 | 4.0 | 0.13 | 0.27 | 0.27 | 95 | 1004.2 |
| 20260506143812 | 50 | 306 | 2.0 | 5.0 | 0.12 | 0.25 | 0.25 | 95 | 1004.2 |
| 20260506143320 | 51 | 350 | 3.0 | 6.0 | 0.11 | 0.23 | 0.23 | 95 | 1004.2 |
| 20260506142828 | 51 | 342 | 2.0 | 6.0 | 0.11 | 0.22 | 0.22 | 95 | 1004.2 |
| 20260506142329 | 52 | 301 | 2.0 | 4.0 | 0.10 | 0.20 | 0.20 | 96 | 1004.2 |
| 20260506141824 | 52 | 342 | 1.0 | 4.0 | 0.08 | 0.17 | 0.17 | 96 | 1004.2 |
| 20260506141329 | 52 | 342 | 1.0 | 4.0 | 0.08 | 0.17 | 0.17 | 96 | 1004.0 |
| 20260506140823 | 52 | 342 | 1.0 | 3.0 | 0.08 | 0.16 | 0.16 | 96 | 1004.0 |
| 20260506140333 | 52 | 325 | 1.0 | 3.0 | 0.08 | 0.15 | 0.15 | 96 | 1004.0 |
| 20260506135844 | 52 | 313 | 1.0 | 4.0 | 0.08 | 0.15 | 0.15 | 96 | 1003.9 |
| 20260506135318 | 52 | 334 | 2.0 | 4.0 | 0.09 | 0.15 | 0.15 | 96 | 1003.9 |
| 20260506134822 | 52 | 304 | 1.0 | 3.0 | 0.08 | 0.14 | 0.14 | 96 | 1003.9 |
| 20260506134325 | 53 | 311 | 1.0 | 3.0 | 0.08 | 0.13 | 0.13 | 96 | 1003.7 |
| 20260506133854 | 53 | 336 | 1.0 | 4.0 | 0.08 | 0.13 | 0.13 | 95 | 1003.7 |
| 20260506133325 | 53 | 311 | 2.0 | 4.0 | 0.08 | 0.12 | 0.12 | 96 | 1003.7 |
| 20260506132832 | 53 | 306 | 0.0 | 3.0 | 0.07 | 0.11 | 0.11 | 96 | 1003.8 |
| 20260506132341 | 53 | 322 | 1.0 | 4.0 | 0.07 | 0.10 | 0.10 | 96 | 1003.8 |
| 20260506131814 | 53 | 325 | 1.0 | 4.0 | 0.06 | 0.09 | 0.09 | 96 | 1003.8 |
| 20260506131325 | 53 | 350 | 1.0 | 3.0 | 0.05 | 0.08 | 0.08 | 96 | 1004.0 |
| 20260506130850 | 53 | 323 | 2.0 | 3.0 | 0.05 | 0.08 | 0.08 | 96 | 1004.0 |
| 20260506130350 | 53 | 283 | 0.0 | 4.0 | 0.04 | 0.07 | 0.07 | 96 | 1004.0 |
| 20260506125835 | 53 | 5 | 2.0 | 5.0 | 0.04 | 0.07 | 0.07 | 96 | 1004.2 |
| 20260506125330 | 53 | 308 | 2.0 | 5.0 | 0.04 | 0.06 | 0.06 | 95 | 1004.2 |
| 20260506124839 | 53 | 307 | 3.0 | 5.0 | 0.04 | 0.06 | 0.06 | 95 | 1004.2 |
| 20260506124330 | 53 | 290 | 2.0 | 7.0 | 0.03 | 0.05 | 0.05 | 95 | 1004.7 |
| 20260506123819 | 53 | 349 | 3.0 | 8.0 | 0.02 | 0.04 | 0.04 | 95 | 1004.7 |
| 20260506123345 | 54 | 308 | 3.0 | 8.0 | 0.02 | 0.04 | 0.04 | 95 | 1004.7 |
| 20260506122835 | 54 | 24 | 4.0 | 5.0 | 0.02 | 0.04 | 0.04 | 95 | 1004.4 |
| 20260506122311 | 54 | 342 | 3.0 | 5.0 | 0.01 | 0.03 | 0.03 | 95 | 1004.4 |
| 20260506121825 | 54 | 319 | 2.0 | 4.0 | 0.01 | 0.03 | 0.03 | 95 | 1004.4 |
| 20260506121333 | 55 | 340 | 2.0 | 5.0 | 0.01 | 0.03 | 0.03 | 96 | 1003.9 |
| 20260506120829 | 55 | 15 | 2.0 | 5.0 | 0.01 | 0.03 | 0.03 | 96 | 1003.9 |
| 20260506120334 | 55 | 355 | 1.0 | 4.0 | 0.01 | 0.03 | 0.03 | 96 | 1003.9 |
| 20260506115838 | 55 | 336 | 2.0 | 5.0 | 0.01 | 0.03 | 0.03 | 96 | 1004.1 |
| 20260506115330 | 55 | 290 | 3.0 | 6.0 | 0.00 | 0.02 | 0.02 | 96 | 1004.1 |
| 20260506114821 | 55 | 304 | 3.0 | 6.0 | 0.00 | 0.02 | 0.02 | 96 | 1004.1 |
| 20260506114318 | 55 | 300 | 0.0 | 3.0 | 0.00 | 0.02 | 0.02 | 96 | 1004.1 |
| 20260506113843 | 55 | 300 | 0.0 | 3.0 | 0.00 | 0.02 | 0.02 | 96 | 1004.1 |
| 20260506113347 | 55 | 324 | 0.0 | 3.0 | 0.00 | 0.02 | 0.02 | 96 | 1004.1 |
| 20260506112821 | 55 | 324 | 0.0 | 3.0 | 0.00 | 0.02 | 0.02 | 96 | 1003.8 |
| 20260506112315 | 54 | 324 | 0.0 | 3.0 | 0.00 | 0.02 | 0.02 | 96 | 1003.8 |
| 20260506111823 | 54 | 103 | 1.0 | 3.0 | 0.00 | 0.02 | 0.02 | 96 | 1003.8 |
| 20260506111314 | 54 | 103 | 0.0 | 3.0 | 0.00 | 0.02 | 0.02 | 96 | 1004.2 |
| 20260506110819 | 54 | 90 | 0.0 | 0.0 | 0.00 | 0.02 | 0.02 | 96 | 1004.2 |
| 20260506110331 | 54 | 90 | 0.0 | 0.0 | 0.00 | 0.02 | 0.02 | 96 | 1004.2 |
| 20260506105842 | 54 | 90 | 0.0 | 0.0 | 0.00 | 0.02 | 0.02 | 96 | 1003.7 |
| 20260506105342 | 54 | 90 | 0.0 | 0.0 | 0.00 | 0.02 | 0.02 | 96 | 1003.7 |
| 20260506104810 | 54 | 90 | 0.0 | 0.0 | 0.00 | 0.02 | 0.02 | 96 | 1003.7 |
| 20260506104346 | 54 | 90 | 0.0 | 0.0 | 0.00 | 0.02 | 0.02 | 95 | 1003.6 |
| 20260506103814 | 54 | 90 | 0.0 | 0.0 | 0.00 | 0.02 | 0.02 | 95 | 1003.6 |
| 20260506103344 | 54 | 90 | 0.0 | 0.0 | 0.00 | 0.02 | 0.02 | 95 | 1003.6 |
| 20260506102829 | 54 | 90 | 0.0 | 0.0 | 0.00 | 0.02 | 0.02 | 96 | 1003.6 |
| 20260506102326 | 54 | 90 | 0.0 | 0.0 | 0.00 | 0.02 | 0.02 | 95 | 1003.6 |
| 20260506101813 | 54 | 90 | 0.0 | 0.0 | 0.00 | 0.02 | 0.02 | 95 | 1003.6 |
| 20260506101323 | 54 | 90 | 0.0 | 0.0 | 0.00 | 0.02 | 0.02 | 95 | 1003.5 |
| 20260506100832 | 54 | 90 | 0.0 | 0.0 | 0.00 | 0.02 | 0.02 | 95 | 1003.5 |
| 20260506100314 | 53 | 90 | 0.0 | 0.0 | 0.00 | 0.02 | 0.02 | 95 | 1003.5 |
| 20260506095818 | 53 | 90 | 0.0 | 0.0 | 0.00 | 0.02 | 0.02 | 95 | 1003.6 |
| 20260506095321 | 53 | 90 | 327.0 | 0.0 | 0.00 | 0.02 | 0.02 | 94 | 1003.6 |
| 20260506094847 | 0 | 0.0 | 0.0 | 0.00 | 0.02 | 0.02 | 1003.6 | ||
| 20260506094332 | 0 | 0.0 | 0.0 | 0.00 | 0.02 | 0.02 | 1003.4 | ||
| 20260506093837 | 0 | 0.0 | 0.0 | 0.00 | 0.02 | 0.02 | 1003.4 | ||
| 20260506093315 | 54 | 90 | 0.0 | 0.0 | 0.00 | 0.02 | 0.02 | 94 | 1003.4 |
| 20260506092823 | 54 | 90 | 0.0 | 0.0 | 0.00 | 0.02 | 0.02 | 94 | 1003.7 |
| 20260506092328 | 54 | 90 | 0.0 | 0.0 | 0.00 | 0.02 | 0.02 | 93 | 1003.7 |
| 20260506091820 | 54 | 90 | 0.0 | 0.0 | 0.00 | 0.02 | 0.02 | 93 | 1003.7 |
| 20260506091326 | 54 | 90 | 0.0 | 0.0 | 0.00 | 0.02 | 0.02 | 93 | 1003.6 |
| 20260506090835 | 54 | 90 | 0.0 | 0.0 | 0.00 | 0.02 | 0.02 | 94 | 1003.6 |
| 20260506090340 | 54 | 90 | 0.0 | 0.0 | 0.00 | 0.02 | 0.02 | 94 | 1003.6 |
| 20260506085814 | 55 | 90 | 0.0 | 0.0 | 0.00 | 0.02 | 0.02 | 94 | 1003.8 |
| 20260506085324 | 55 | 90 | 0.0 | 0.0 | 0.00 | 0.02 | 0.02 | 94 | 1003.8 |
| 20260506084818 | 55 | 90 | 0.0 | 0.0 | 0.00 | 0.02 | 0.02 | 94 | 1003.8 |
| 20260506084319 | 55 | 90 | 0.0 | 0.0 | 0.00 | 0.02 | 0.02 | 94 | 1004.2 |
| 20260506083843 | 55 | 90 | 0.0 | 0.0 | 0.00 | 0.02 | 0.02 | 94 | 1004.2 |
| 20260506083319 | 55 | 90 | 0.0 | 0.0 | 0.00 | 0.02 | 0.02 | 93 | 1004.2 |
| 20260506082812 | 55 | 90 | 0.0 | 0.0 | 0.00 | 0.02 | 0.02 | 93 | 1004.1 |
| 20260506082314 | 56 | 90 | 0.0 | 0.0 | 0.00 | 0.02 | 0.02 | 93 | 1004.1 |
| 20260506081827 | 56 | 90 | 0.0 | 0.0 | 0.00 | 0.02 | 0.02 | 94 | 1004.1 |
| 20260506081407 | 56 | 90 | 0.0 | 0.0 | 0.00 | 0.02 | 0.02 | 94 | 1004.2 |
| 20260506080827 | 56 | 90 | 0.0 | 0.0 | 0.00 | 0.02 | 0.02 | 95 | 1004.2 |
| 20260506080332 | 56 | 90 | 0.0 | 0.0 | 0.00 | 0.02 | 0.02 | 95 | 1004.2 |
| 20260506073315 | 56 | 90 | 0.0 | 0.0 | 0.00 | 0.02 | 0.02 | 94 | 1004.3 |
| 20260506072826 | 56 | 90 | 0.0 | 0.0 | 0.00 | 0.02 | 0.02 | 94 | 1004.4 |
| 20260506072350 | 56 | 90 | 0.0 | 0.0 | 0.00 | 0.02 | 0.02 | 95 | 1004.4 |
| 20260506071817 | 56 | 90 | 327.0 | 0.0 | 0.00 | 0.02 | 0.02 | 94 | 1004.4 |
| 20260506071319 | 0 | 0.0 | 0.0 | 0.00 | 0.02 | 0.02 | 1004.3 | ||
| 20260506070846 | 0 | 0.0 | 0.0 | 0.00 | 0.02 | 0.02 | 1004.3 | ||
| 20260506070331 | 0 | 0.0 | 0.0 | 0.00 | 0.02 | 0.02 | 1004.3 | ||
| 20260506062318 | 57 | 106 | 0.0 | 0.0 | 0.00 | 0.02 | 0.02 | 93 | 1004.5 |
| 20260506061826 | 57 | 106 | 0.0 | 0.0 | 0.00 | 0.02 | 0.02 | 93 | 1004.5 |
| 20260506061353 | 57 | 106 | 0.0 | 2.0 | 0.00 | 0.02 | 0.02 | 93 | 1004.5 |
| 20260506060840 | 57 | 106 | 0.0 | 3.0 | 0.00 | 0.02 | 0.02 | 93 | 1004.5 |
| 20260506060330 | 57 | 106 | 1.0 | 3.0 | 0.00 | 0.02 | 0.02 | 92 | 1004.5 |
| 20260506051318 | 59 | 44 | 1.0 | 2.0 | 0.02 | 0.02 | 0.02 | 91 | 1005.3 |
| 20260506050840 | 59 | 44 | 1.0 | 2.0 | 0.02 | 0.02 | 0.02 | 89 | 1005.3 |
| 20260506050326 | 59 | 102 | 2.0 | 2.0 | 0.02 | 0.02 | 0.02 | 89 | 1005.3 |
| 20260506044830 | 60 | 102 | 1.0 | 2.0 | 0.02 | 0.02 | 0.02 | 86 | 1005.2 |
| 20260506044317 | 60 | 102 | 1.0 | 2.0 | 0.01 | 0.01 | 0.01 | 85 | 1004.8 |
| 20260506043841 | 61 | 102 | 0.0 | 2.0 | 0.00 | 0.00 | 0.00 | 84 | 1004.8 |
| 20260506043315 | 61 | 102 | 1.0 | 2.0 | 0.00 | 0.00 | 0.00 | 83 | 1004.8 |
| 20260506042853 | 61 | 126 | 0.0 | 3.0 | 0.00 | 0.00 | 0.00 | 82 | 1004.8 |
| 20260506042332 | 61 | 126 | 1.0 | 3.0 | 0.00 | 0.00 | 0.00 | 81 | 1004.8 |
| 20260506041816 | 61 | 78 | 0.0 | 2.0 | 0.00 | 0.00 | 0.00 | 80 | 1004.8 |
| 20260506041340 | 61 | 78 | 0.0 | 2.0 | 0.00 | 0.00 | 0.00 | 81 | 1004.8 |
| 20260506040842 | 61 | 151 | 1.0 | 2.0 | 0.00 | 0.00 | 0.00 | 80 | 1004.8 |
| 20260506040326 | 61 | 89 | 0.0 | 1.0 | 0.00 | 0.00 | 0.00 | 80 | 1004.8 |
| 20260506035815 | 61 | 89 | 1.0 | 2.0 | 0.00 | 0.00 | 0.00 | 80 | 1004.6 |
| 20260506035322 | 61 | 89 | 1.0 | 2.0 | 0.00 | 0.00 | 0.00 | 80 | 1004.6 |
| 20260506034820 | 61 | 35 | 1.0 | 2.0 | 0.00 | 0.00 | 0.00 | 80 | 1004.6 |
| 20260506034344 | 61 | 35 | 1.0 | 2.0 | 0.00 | 0.00 | 0.00 | 80 | 1004.6 |
| 20260506033821 | 61 | 107 | 1.0 | 2.0 | 0.00 | 0.00 | 0.00 | 80 | 1004.6 |
| 20260506033333 | 62 | 107 | 0.0 | 2.0 | 0.00 | 0.00 | 0.00 | 78 | 1004.6 |
| 20260506032815 | 62 | 107 | 0.0 | 4.0 | 0.00 | 0.00 | 0.00 | 78 | 1004.3 |
| 20260506032328 | 62 | 129 | 1.0 | 4.0 | 0.00 | 0.00 | 0.00 | 78 | 1004.3 |
| 20260506031815 | 62 | 150 | 1.0 | 4.0 | 0.00 | 0.00 | 0.00 | 76 | 1004.3 |
| 20260506031344 | 62 | 103 | 0.0 | 1.0 | 0.00 | 0.00 | 0.00 | 76 | 1004.2 |
| 20260506030828 | 62 | 103 | 0.0 | 2.0 | 0.00 | 0.00 | 0.00 | 77 | 1004.2 |
| 20260506030325 | 62 | 103 | 1.0 | 3.0 | 0.00 | 0.00 | 0.00 | 75 | 1004.2 |
| 20260506025845 | 62 | 138 | 1.0 | 3.0 | 0.00 | 0.00 | 0.00 | 75 | 1004.2 |
| 20260506025358 | 62 | 147 | 1.0 | 3.0 | 0.00 | 0.00 | 0.00 | 76 | 1004.2 |
| 20260506024833 | 62 | 142 | 2.0 | 3.0 | 0.00 | 0.00 | 0.00 | 76 | 1004.2 |
| 20260506024323 | 62 | 147 | 0.0 | 2.0 | 0.00 | 0.00 | 0.00 | 76 | 1004.2 |
| 20260506023830 | 62 | 147 | 0.0 | 2.0 | 0.00 | 0.00 | 0.00 | 76 | 1004.2 |
| 20260506023339 | 62 | 131 | 2.0 | 2.0 | 0.00 | 0.00 | 0.00 | 75 | 1004.2 |
| 20260506022827 | 62 | 145 | 0.0 | 1.0 | 0.00 | 0.00 | 0.00 | 76 | 1004.2 |
| 20260506022327 | 62 | 228 | 0.0 | 2.0 | 0.00 | 0.00 | 0.00 | 75 | 1004.2 |
| 20260506021816 | 63 | 184 | 1.0 | 4.0 | 0.00 | 0.00 | 0.00 | 75 | 1004.2 |
| 20260506021325 | 63 | 174 | 1.0 | 4.0 | 0.00 | 0.00 | 0.00 | 74 | 1004.1 |
| 20260506020834 | 63 | 161 | 1.0 | 2.0 | 0.00 | 0.00 | 0.00 | 74 | 1004.1 |
| 20260506020313 | 63 | 156 | 1.0 | 4.0 | 0.00 | 0.00 | 0.00 | 75 | 1004.1 |
| 20260506015854 | 63 | 155 | 1.0 | 4.0 | 0.00 | 0.00 | 0.00 | 74 | 1004.0 |
| 20260506015331 | 63 | 165 | 1.0 | 3.0 | 0.00 | 0.00 | 0.00 | 75 | 1004.0 |
| 20260506014843 | 63 | 154 | 2.0 | 5.0 | 0.00 | 0.00 | 0.00 | 75 | 1004.0 |
| 20260506014314 | 63 | 159 | 1.0 | 5.0 | 0.00 | 0.00 | 0.00 | 75 | 1003.8 |
| 20260506013826 | 63 | 131 | 3.0 | 5.0 | 0.00 | 0.00 | 0.00 | 74 | 1003.8 |
| 20260506013352 | 63 | 134 | 2.0 | 6.0 | 0.00 | 0.00 | 0.00 | 74 | 1003.8 |
| 20260506012830 | 63 | 188 | 2.0 | 6.0 | 0.00 | 0.00 | 0.00 | 74 | 1003.7 |
| 20260506012329 | 0 | 0.0 | 0.0 | 0.00 | 0.00 | 0.00 | 1003.7 | ||
| 20260506011816 | 0 | 0.0 | 0.0 | 0.00 | 0.00 | 0.00 | 1003.7 | ||
| 20260506011324 | 0 | 0.0 | 0.0 | 0.00 | 0.00 | 0.00 | 1003.3 | ||
| 20260506010849 | 62 | 221 | 2.0 | 5.0 | 0.00 | 0.00 | 0.00 | 75 | 1003.3 |
| 20260506010346 | 62 | 221 | 2.0 | 5.0 | 0.00 | 0.00 | 0.00 | 75 | 1003.3 |
| 20260506005816 | 62 | 221 | 2.0 | 5.0 | 0.00 | 0.00 | 0.00 | 74 | 1003.0 |
| 20260506005315 | 62 | 150 | 2.0 | 5.0 | 0.00 | 0.00 | 0.00 | 74 | 1003.0 |
| 20260506004825 | 62 | 150 | 2.0 | 5.0 | 0.00 | 0.00 | 0.00 | 73 | 1003.0 |
| 20260506004315 | 62 | 161 | 3.0 | 7.0 | 0.00 | 0.00 | 0.00 | 74 | 1002.7 |
| 20260506003826 | 62 | 140 | 4.0 | 7.0 | 0.00 | 0.00 | 0.00 | 74 | 1002.7 |
| 20260506003329 | 62 | 131 | 3.0 | 8.0 | 0.00 | 0.00 | 0.00 | 75 | 1002.7 |
| 20260506002822 | 62 | 130 | 3.0 | 8.0 | 0.00 | 0.00 | 0.00 | 75 | 1002.8 |
| 20260506002331 | 62 | 142 | 3.0 | 7.0 | 0.00 | 0.00 | 0.00 | 75 | 1002.8 |
| 20260506001817 | 62 | 148 | 3.0 | 4.0 | 0.00 | 0.00 | 0.00 | 75 | 1002.8 |
| 20260506001355 | 62 | 140 | 2.0 | 4.0 | 0.00 | 0.00 | 0.00 | 76 | 1002.8 |
| 20260506000830 | 62 | 136 | 2.0 | 5.0 | 0.00 | 0.00 | 0.00 | 75 | 1002.8 |
| 20260506000325 | 63 | 138 | 2.0 | 5.0 | 0.00 | 0.00 | 0.00 | 74 | 1002.8 |
| 20260505235834 | 63 | 144 | 1.0 | 9.0 | 0.00 | 0.00 | 0.00 | 75 | 1002.6 |
| 20260505235316 | 63 | 147 | 3.0 | 12.0 | 0.00 | 0.00 | 0.00 | 74 | 1002.6 |
| 20260505234822 | 63 | 146 | 5.0 | 12.0 | 0.00 | 0.00 | 0.00 | 74 | 1002.6 |
| 20260505234316 | 62 | 196 | 3.0 | 8.0 | 0.00 | 0.00 | 0.00 | 77 | 1002.6 |
| 20260505233816 | 62 | 146 | 4.0 | 6.0 | 0.00 | 0.00 | 0.00 | 77 | 1002.6 |
| 20260505233331 | 62 | 163 | 3.0 | 7.0 | 0.00 | 0.00 | 0.00 | 76 | 1002.6 |
| 20260505232820 | 63 | 170 | 2.0 | 5.0 | 0.00 | 0.00 | 0.00 | 77 | 1002.6 |
| 20260505232330 | 63 | 164 | 2.0 | 5.0 | 0.00 | 0.00 | 0.00 | 75 | 1002.6 |
| 20260505231843 | 64 | 142 | 2.0 | 5.0 | 0.00 | 0.00 | 0.00 | 75 | 1002.6 |
| 20260505231321 | 64 | 138 | 1.0 | 6.0 | 0.00 | 0.00 | 0.00 | 72 | 1002.8 |
| 20260505230814 | 65 | 126 | 3.0 | 10.0 | 0.00 | 0.00 | 0.00 | 71 | 1002.8 |
| 20260505230319 | 65 | 153 | 3.0 | 10.0 | 0.00 | 0.00 | 0.00 | 68 | 1002.8 |
| 20260505225843 | 65 | 148 | 3.0 | 15.0 | 0.00 | 0.00 | 0.00 | 70 | 1002.9 |
| 20260505225335 | 65 | 141 | 3.0 | 15.0 | 0.00 | 0.00 | 0.00 | 71 | 1002.9 |
| 20260505224820 | 65 | 127 | 5.0 | 11.0 | 0.00 | 0.00 | 0.00 | 71 | 1002.9 |
| 20260505224324 | 65 | 153 | 3.0 | 10.0 | 0.00 | 0.00 | 0.00 | 72 | 1002.7 |
| 20260505223837 | 65 | 175 | 4.0 | 10.0 | 0.00 | 0.00 | 0.00 | 69 | 1002.7 |
| 20260505223328 | 65 | 161 | 4.0 | 7.0 | 0.00 | 0.00 | 0.00 | 69 | 1002.7 |
| 20260505222834 | 65 | 186 | 3.0 | 6.0 | 0.00 | 0.00 | 0.00 | 72 | 1002.3 |
| 20260505222327 | 65 | 150 | 1.0 | 4.0 | 0.00 | 0.00 | 0.00 | 72 | 1002.3 |
| 20260505221818 | 65 | 122 | 2.0 | 4.0 | 0.00 | 0.00 | 0.00 | 70 | 1002.3 |
| 20260505221325 | 66 | 132 | 1.0 | 5.0 | 0.00 | 0.00 | 0.00 | 71 | 1002.1 |
| 20260505220836 | 66 | 115 | 1.0 | 5.0 | 0.00 | 0.00 | 0.00 | 65 | 1002.1 |
| 20260505220315 | 66 | 94 | 2.0 | 4.0 | 0.00 | 0.00 | 0.00 | 66 | 1002.1 |
| 20260505215823 | 66 | 52 | 2.0 | 5.0 | 0.00 | 0.00 | 0.00 | 68 | 1002.6 |
| 20260505215335 | 66 | 9 | 2.0 | 8.0 | 0.00 | 0.00 | 0.00 | 66 | 1002.6 |
| 20260505214824 | 66 | 296 | 5.0 | 8.0 | 0.00 | 0.00 | 0.00 | 66 | 1002.6 |
| 20260505214313 | 66 | 322 | 4.0 | 9.0 | 0.00 | 0.00 | 0.00 | 67 | 1002.6 |
| 20260505213812 | 66 | 346 | 5.0 | 9.0 | 0.00 | 0.00 | 0.00 | 70 | 1002.6 |
| 20260505213320 | 66 | 298 | 4.0 | 6.0 | 0.00 | 0.00 | 0.00 | 70 | 1002.6 |
| 20260505212827 | 67 | 336 | 4.0 | 7.0 | 0.00 | 0.00 | 0.00 | 72 | 1002.0 |
| 20260505212313 | 67 | 236 | 2.0 | 15.0 | 0.00 | 0.00 | 0.00 | 69 | 1002.0 |
| 20260505211814 | 67 | 185 | 4.0 | 15.0 | 0.00 | 0.00 | 0.00 | 70 | 1002.0 |
| 20260505211333 | 67 | 92 | 0.0 | 5.0 | 0.00 | 0.00 | 0.00 | 69 | 1001.0 |
| 20260505210820 | 68 | 80 | 2.0 | 8.0 | 0.00 | 0.00 | 0.00 | 70 | 1001.0 |
| 20260505210333 | 68 | 182 | 3.0 | 8.0 | 0.00 | 0.00 | 0.00 | 66 | 1001.0 |
| 20260505205839 | 67 | 151 | 1.0 | 5.0 | 0.00 | 0.00 | 0.00 | 69 | 1001.1 |
| 20260505205321 | 67 | 129 | 2.0 | 5.0 | 0.00 | 0.00 | 0.00 | 71 | 1001.1 |
| 20260505204834 | 66 | 98 | 2.0 | 5.0 | 0.00 | 0.00 | 0.00 | 73 | 1001.1 |
| 20260505204321 | 66 | 301 | 1.0 | 6.0 | 0.00 | 0.00 | 0.00 | 77 | 1001.0 |
| 20260505203831 | 66 | 247 | 3.0 | 6.0 | 0.00 | 0.00 | 0.00 | 71 | 1001.0 |
| 20260505203326 | 66 | 211 | 3.0 | 6.0 | 0.00 | 0.00 | 0.00 | 74 | 1001.0 |
| 20260505202845 | 65 | 5 | 1.0 | 6.0 | 0.00 | 0.00 | 0.00 | 80 | 1000.2 |
| 20260505202315 | 64 | 15 | 3.0 | 8.0 | 0.00 | 0.00 | 0.00 | 79 | 1000.2 |
| 20260505201829 | 64 | 157 | 3.0 | 8.0 | 0.00 | 0.00 | 0.00 | 77 | 1000.2 |
| 20260505201319 | 0 | 0.0 | 0.0 | 0.00 | 0.00 | 0.00 | 1001.6 | ||
| 20260505200825 | 0 | 0.0 | 0.0 | 0.00 | 0.00 | 0.00 | 1001.6 | ||
| 20260505200317 | 0 | 0.0 | 0.0 | 0.00 | 0.00 | 0.00 | 1001.6 | ||
| 20260505195836 | 72 | 333 | 7.0 | 22.0 | 0.00 | 0.00 | 0.00 | 48 | 1001.5 |
| 20260505194814 | 74 | 28 | 6.0 | 22.0 | 0.00 | 0.00 | 0.00 | 48 | 1001.5 |
| 20260505194326 | 76 | 355 | 3.0 | 8.0 | 0.00 | 0.00 | 0.00 | 44 | 999.4 |
| 20260505193818 | 77 | 30 | 3.0 | 13.0 | 0.00 | 0.00 | 0.00 | 43 | 999.4 |
| 20260505193348 | 77 | 113 | 3.0 | 15.0 | 0.00 | 0.00 | 0.00 | 41 | 999.4 |
| 20260505192834 | 78 | 140 | 6.0 | 20.0 | 0.00 | 0.00 | 0.00 | 40 | 999.2 |
| 20260505192315 | 78 | 149 | 8.0 | 20.0 | 0.00 | 0.00 | 0.00 | 39 | 999.2 |
| 20260505191830 | 79 | 159 | 7.0 | 20.0 | 0.00 | 0.00 | 0.00 | 40 | 999.2 |
| 20260505191345 | 79 | 204 | 3.0 | 15.0 | 0.00 | 0.00 | 0.00 | 41 | 999.1 |
| 20260505190830 | 79 | 121 | 7.0 | 15.0 | 0.00 | 0.00 | 0.00 | 39 | 999.1 |
| 20260505190331 | 79 | 137 | 6.0 | 17.0 | 0.00 | 0.00 | 0.00 | 39 | 999.1 |
| 20260505185852 | 80 | 168 | 8.0 | 18.0 | 0.00 | 0.00 | 0.00 | 39 | 999.0 |
| 20260505185326 | 80 | 178 | 6.0 | 20.0 | 0.00 | 0.00 | 0.00 | 38 | 999.0 |
| 20260505184819 | 82 | 207 | 7.0 | 19.0 | 0.00 | 0.00 | 0.00 | 35 | 999.0 |
| 20260505184329 | 82 | 167 | 7.0 | 19.0 | 0.00 | 0.00 | 0.00 | 39 | 999.4 |
| 20260505183841 | 82 | 140 | 7.0 | 19.0 | 0.00 | 0.00 | 0.00 | 36 | 999.4 |
| 20260505183318 | 81 | 111 | 6.0 | 19.0 | 0.00 | 0.00 | 0.00 | 41 | 999.4 |
| 20260505182828 | 81 | 140 | 6.0 | 21.0 | 0.00 | 0.00 | 0.00 | 38 | 999.4 |
| 20260505182321 | 81 | 156 | 7.0 | 20.0 | 0.00 | 0.00 | 0.00 | 38 | 999.4 |
| 20260505181820 | 80 | 148 | 7.0 | 20.0 | 0.00 | 0.00 | 0.00 | 40 | 999.4 |
| 20260505181338 | 80 | 168 | 7.0 | 15.0 | 0.00 | 0.00 | 0.00 | 43 | 999.7 |
| 20260505180819 | 81 | 242 | 8.0 | 18.0 | 0.00 | 0.00 | 0.00 | 38 | 999.7 |
| 20260505180332 | 81 | 230 | 8.0 | 18.0 | 0.00 | 0.00 | 0.00 | 39 | 999.7 |
| 20260505175842 | 81 | 146 | 5.0 | 16.0 | 0.00 | 0.00 | 0.00 | 40 | 1000.1 |
| 20260505175327 | 81 | 239 | 5.0 | 17.0 | 0.00 | 0.00 | 0.00 | 39 | 1000.1 |
| 20260505174841 | 81 | 153 | 5.0 | 17.0 | 0.00 | 0.00 | 0.00 | 41 | 1000.1 |
| 20260505174330 | 80 | 197 | 7.0 | 19.0 | 0.00 | 0.00 | 0.00 | 39 | 1000.4 |
| 20260505173836 | 80 | 181 | 6.0 | 19.0 | 0.00 | 0.00 | 0.00 | 40 | 1000.4 |
| 20260505173316 | 81 | 186 | 7.0 | 16.0 | 0.00 | 0.00 | 0.00 | 41 | 1000.4 |
| 20260505172821 | 81 | 119 | 9.0 | 17.0 | 0.00 | 0.00 | 0.00 | 39 | 1000.4 |